Overview Statistics Trail Chart Weather Telemetry Raw packets
 

This is the latest recevied weather packets stored in our database for station/object SV9TNF-57. If no packets are shown the sender has not sent any weather packets the latest 10 day(s).

<< 89 90 91 92 93 94 95 >>
Time Temp. Humidity Pressure Rain* Wind** Luminosity Snow
1788006110 27.22° C 50% 996.9 hPa 0 mm 6.71 m/s, 342° - -
1788005810 27.22° C 51% 997.2 hPa 0 mm 6.71 m/s, 352° - -
1788005510 27.22° C 51% 996.8 hPa 0 mm 7.15 m/s, 266° - -
1788005210 26.67° C 54% 996.9 hPa 0 mm 3.58 m/s, 313° - -
1788004910 26.67° C 54% 997.2 hPa 0 mm 10.28 m/s, 356° - -
1788004610 26.67° C 55% 996.9 hPa 0 mm 1.34 m/s, 356° - -
1788004310 26.67° C 54% 997 hPa 0 mm 6.71 m/s, 84° - -
1788004009 26.67° C 56% 996.7 hPa 0 mm 4.92 m/s, 41° - -
1788003709 26.67° C 57% 996.7 hPa 0 mm 4.47 m/s, 339° - -
1788003409 27.22° C 53% 996.7 hPa 0 mm 6.71 m/s, 338° - -
1788003109 27.22° C 55% 996.8 hPa 0 mm 8.05 m/s, 352° - -
1788002809 26.67° C 56% 996.7 hPa 0 mm 5.36 m/s, 10° - -
1788002510 26.67° C 56% 996.7 hPa 0 mm 11.62 m/s, 352° - -
1788002209 26.67° C 56% 996.6 hPa 0 mm 7.15 m/s, 34° - -
1788001909 26.67° C 56% 996.7 hPa 0 mm 6.26 m/s, 355° - -
1788001608 27.22° C 56% 996.7 hPa 0 mm 10.73 m/s, 273° - -
1788001308 26.67° C 57% 996.5 hPa 0 mm 13.86 m/s, 2° - -
1788001008 26.67° C 57% 996.7 hPa 0 mm 5.81 m/s, 276° - -
1788000709 26.67° C 55% 996.6 hPa 0 mm 6.26 m/s, 338° - -
1788000408 26.67° C 54% 996.6 hPa 0 mm 10.28 m/s, 47° - -
1788000108 26.67° C 52% 996.9 hPa 0 mm 15.2 m/s, 352° - -
1787999808 27.22° C 52% 997 hPa 0 mm 13.41 m/s, 65° - -
1787999508 26.67° C 54% 997 hPa 0 mm 6.26 m/s, 333° - -
1787999208 27.22° C 53% 997.3 hPa 0 mm 5.81 m/s, 320° - -
1787998908 27.22° C 50% 997.2 hPa 0 mm 2.68 m/s, 310° - -

* Rain latest hour (hover to see other rain measurements)
** Current wind speed in m/s (hover to see current wind gust speed)